Tracking 19638 objects as of 20-May-2019
HD Live streaming from Space Station
objects crossing your sky now

IRIDIUM 120

Track IRIDIUM 120 now!
10-day predictions
IRIDIUM 120 is classified as:


NORAD ID: 42805
Int'l Code: 2017-039C
Perigee: 783.3 km
Apogee: 786.3 km
Inclination: 86.4 °
Period: 100.4 minutes
Semi major axis: 7155 km
RCS: Unknown
Launch date: June 25, 2017
Source: United States (US)
Launch site: AIR FORCE WESTERN TEST RANGE (AFWTR)
aabbcc
Your satellite tracking list
Your tracking list is empty




NASA's NSSDC Master Catalog

Two Line Element Set (TLE):
1 42805U 17039C   19140.51969453 -.00000006  00000-0 -90863-5 0  9995
2 42805  86.3932 322.2474 0002150 101.9758 258.1679 14.34217377100711
Source of the keplerian elements: AFSPC